Powrót do katalogu

CZ-4C R/B

AktywnyLEO
NORAD 40112·ROCKET BODY·🇨🇳 China

Wystrzelony Aug 9, 2014 z Jiuquan Satellite Launch Center

Loading…

Następne Przeloty (najbliższe 24 godziny)

TLE

ŚwieżeSource: Space-Track

Epoka: Sep 14, 2026, 15:28 UTC

1 40112U 14047D   26257.64508400 -.00000048  00000-0  26078-4 0  9993
2 40112  63.4105  21.6218 0569397   0.6666 359.5008 13.70437716605068

Śledź CZ-4C R/B w czasie rzeczywistym z AllMySat

Download on the App Store